Regional Weather Roundup
Issued by NWS

Home | Current Version | Previous Version | Graphics & Text | Print | Product List | Glossary Off
Versions: 1 2 3 4 5 6 7 8 9 10 11 12 13 14 15 16 17 18 19 20 21 22 23 24 25 26 27 28 29 30 31 32 33 34 35 36 37 38 39 40 41 42 43 44 45 46 47 48 49 50

000
ASUS43 KTOP 010859
RWRKS

WEATHER ROUNDUP FOR KANSAS
NATIONAL WEATHER SERVICE GOODLAND KS
400 AM CDT WED OCT 01 2014

NOTE:  "FAIR" INDICATES FEW OR NO CLOUDS BELOW 12,000 FEET WITH NO
SIGNIFICANT WEATHER AND/OR OBSTRUCTIONS TO VISIBILITY.

KSZ001>006-013>018-027>032-041>047-011000-
NORTHWEST KANSAS

CITY           SKY/WX    TMP DP  RH WIND       PRES   REMARKS
GOODLAND       PTCLDY    52  46  80 W5        29.80F
HAYS           CLOUDY    59  54  82 NW8       29.71F VSB<1/4
HILL CITY      FOG       63  62  97 CALM      29.73R VSB 1/2
RUSSELL        CLEAR     59  58  96 W7        29.69S FOG
$$

KSZ061>065-074>080-084>089-011000-
SOUTHWEST KANSAS

CITY           SKY/WX    TMP DP  RH WIND       PRES   REMARKS
DODGE CITY     PTCLDY    59  51  75 N3        29.73F
GARDEN CITY    MOCLDY    60  45  57 CALM      29.74S
GREAT BEND     PTCLDY    59  54  82 SW8       29.71S
LIBERAL        PTCLDY    64  46  52 E8        29.72F
$$

KSZ066>073-081>083-090>101-011000-
SOUTHEAST KANSAS

CITY           SKY/WX    TMP DP  RH WIND       PRES   REMARKS
CHANUTE        PTCLDY    69  61  75 SE14      29.75F
COFFEYVILLE    CLEAR     69  61  75 SE10      29.75F
HUTCHINSON     PTCLDY    69  63  81 S15       29.71F
MEDICINE LODGE   N/A     68  59  73 E7        29.69F
NEWTON         MOCLDY    70  61  73 S10       29.75F
PARSONS        CLEAR     70  62  76 S8        29.77F
WICHITA INTL   MOCLDY    72  65  78 S12       29.72S
WICHITA JABRA  MOCLDY    71  64  78 S13       29.72F
WINFIELD       MOCLDY    69  64  84 S8        29.74S
$$

KSZ007>012-019>026-033>040-048>060-102>105-011000-
NORTHEAST KANSAS

CITY           SKY/WX    TMP DP  RH WIND       PRES   REMARKS
CONCORDIA      PTCLDY    63  63 100 CALM      29.68S
EMPORIA        MOCLDY    68  63  84 S16       29.72F
LAWRENCE       CLOUDY    70  60  70 S12       29.72F
MANHATTAN      CLOUDY    67  63  87 S7        29.69S
OLATHE IND     MOCLDY    67  60  78 S14       29.75F
OLATHE EXE     MOCLDY    66  60  81 S15       29.74F
SALINA         LGT RAIN  68  64  87 S8        29.68S
TOPEKA BILLARD CLOUDY    72  64  76 SW7G18    29.73R
TOPEKA FORBES  CLOUDY    70  63  78 S8        29.73R
$$


USA.gov is the U.S. government's official web portal to all federal, state and local government web resources and services.